Welcome to the New NWS' Forecast!
Most changes are behind the scenes, but click here for differences you might notice.

Regional Weather Roundup (RWR)

Issued by National Weather Service (NWS)

                            
519 
ASUS46 KSEW 181310
RWRWA 

WASHINGTON REGIONAL WEATHER ROUNDUP
NATIONAL WEATHER SERVICE SEATTLE WA
600 AM PDT TUE SEP 18 2018

NOTE:"FAIR" INDICATES FEW OR NO CLOUDS BELOW 12,000 FEET WITH NO 
SIGNIFICANT WEATHER AND/OR OBSTRUCTIONS TO VISIBILITY.

WAZ507-509-555>559-181400-
SEATTLE, TACOMA, EVERETT, AND VICINITY
  
CITY           SKY/WX    TMP DP  RH WIND       PRES   REMARKS
EVERETT        CLEAR     46  45  96 CALM      30.12S                  
BOEING FIELD   CLEAR     50  44  80 CALM      30.12S                  
RENTON         CLEAR     47  42  83 CALM      30.12R                  
SEATAC AIRPORT PTCLDY    48  43  82 N5        30.12R                  
JBLM-MCCHORD   NOT AVBL                                               
PUYALLUP       MOCLDY    39  39 100 CALM      30.12S                  
BREMERTON      CLEAR     37  36  96 CALM      30.13R                  
JBLM-FT LEWIS  NOT AVBL                                               
TACOMA NARROWS CLOUDY    45  42  89 CALM      30.13R                  
$$
 
WAZ001-503-506-510-514-515-181400-
NORTH INTERIOR
  
CITY           SKY/WX    TMP DP  RH WIND       PRES   REMARKS
BELLINGHAM     CLOUDY    48  45  89 CALM      30.12R                  
FRIDAY HARBOR  MOCLDY    46  43  89 W3        30.14R                  
EASTSOUND      MOCLDY    50  48  93 CALM      30.11S                  
PORT ANGELES   CLEAR     43  40  89 SW7       30.13S                  
EDIZ HOOK      FAIR      46  43  89 SW3       30.13S                  
PORT TOWNSEND  FAIR      41  41 100 CALM      30.12S                  
NAS WHIDBEY    MOCLDY    45  42  89 CALM      30.16S                  
ARLINGTON      FOG       39  39 100 NW3       30.13S VSB 1/2          
BURLINGTON     CLOUDY    43  43 100 CALM      30.13R                  
$$
 
WAZ020-022-039-040-504-511-512-181400-
SOUTHWEST INTERIOR
  
CITY           SKY/WX    TMP DP  RH WIND       PRES   REMARKS
SHELTON        CLEAR     37  35  92 CALM      30.11R                  
OLYMPIA        PTCLDY    38  37  97 CALM      30.13R                  
CHEHALIS       FOG       41  41 100 CALM      30.13R VSB<1/4          
KELSO          CLEAR     43  42  97 NW3       30.12R                  
VANCOUVER      CLEAR     47  45  93 CALM      30.09R                  
SCAPPOOSE, OR  CLEAR     47  43  86 N3        30.09R                  
PORTLAND, OR   PTCLDY    52  46  80 CALM      30.09R                  
$$
 
WAZ021-516-517-181400-
WASHINGTON COAST
  
CITY           SKY/WX    TMP DP  RH WIND       PRES   REMARKS
FORKS          MOCLDY    36  34  92 CALM      30.13R                  
HOQUIAM        CLEAR     42  41  96 NE8       30.13R FOG              
ASTORIA, OR    CLEAR     42  41  96 SE3       30.11R                  
$$
 
WAZ019-023-024-040-567>569-181400-
CASCADE MOUNTAINS AND COLUMBIA GORGE
  
CITY           SKY/WX    TMP DP  RH WIND       PRES   REMARKS
STAMPEDE PASS  FOG       41  41 100 VRB3      30.08R VSB 1/4          
TROUTDALE, OR  MOCLDY    46  43  89 CALM      30.09R                  
HOOD RIVER, OR SUNNY     41  39  93 CALM      30.07R                  
THE DALLES, OR CLEAR     51  46  83 SW3       30.04R                  
$$

WAZ026-027-041>044-520-521-181400-
EAST SLOPES
  
CITY           SKY/WX    TMP DP  RH WIND       PRES   REMARKS
OMAK           CLEAR     46  36  68 N10       30.07R                  
WENATCHEE      CLEAR     45  39  79 W8        30.05R                  
ELLENSBURG     CLEAR     39  35  86 E6        30.05R                  
YAKIMA         CLEAR     39  35  86 W8        30.05R                  
SUNNYSIDE ARPT SUNNY     39  38  95 CALM      30.04S                  
YAKIMA TC      NOT AVBL                                               
$$

WAZ028-034-035-181400-
COLUMBIA BASIN
  
CITY           SKY/WX    TMP DP  RH WIND       PRES   REMARKS
EPHRATA        CLEAR     47  32  56 N3        30.03R                  
MOSES LAKE     CLEAR     38  29  70 N6        30.04R                  
PASCO          MOCLDY    41  39  93 N5        30.04R                  
RICHLAND ARPT  PTSUNNY   44  38  79 CALM      30.04R                  
HERMISTON, OR  MOCLDY    43  35  73 S5        30.03R                  
$$

WAZ036>038-181400-
NORTHEAST WASHINGTON
  
CITY           SKY/WX    TMP DP  RH WIND       PRES   REMARKS
SPOKANE GEIGER PTCLDY    41  31  67 CALM      30.03S                  
SPOKANE FELTS  PTCLDY    41  37  86 CALM      30.05R                  
FAIRCHILD AFB  NOT AVBL                                               
COEURDALENE,ID PTCLDY    41  38  89 NE7       30.04R                  
DEER PARK      CLEAR     33  31  92 N7        30.04R                  
$$

WAZ029>033-181400-
SOUTHEAST WASHINGTON
  
CITY           SKY/WX    TMP DP  RH WIND       PRES   REMARKS
PULLMAN        MOCLDY    38  30  73 CALM      30.03S                  
LEWISTON, ID   CLOUDY    50  38  63 CALM      30.01R                  
WALLA WALLA    MOCLDY    50  36  58 SE5       30.02R                  
PENDLETON, OR  CLOUDY    46  35  65 SE7       30.02R                  
$$
  


000
ASUS46 KSEW 181310
RWRWA 

WASHINGTON REGIONAL WEATHER ROUNDUP
NATIONAL WEATHER SERVICE SEATTLE WA
600 AM PDT TUE SEP 18 2018

NOTE:"FAIR" INDICATES FEW OR NO CLOUDS BELOW 12,000 FEET WITH NO 
SIGNIFICANT WEATHER AND/OR OBSTRUCTIONS TO VISIBILITY.

WAZ507-509-555>559-181400-
SEATTLE, TACOMA, EVERETT, AND VICINITY
  
CITY           SKY/WX    TMP DP  RH WIND       PRES   REMARKS
EVERETT        CLEAR     46  45  96 CALM      30.12S                  
BOEING FIELD   CLEAR     50  44  80 CALM      30.12S                  
RENTON         CLEAR     47  42  83 CALM      30.12R                  
SEATAC AIRPORT PTCLDY    48  43  82 N5        30.12R                  
JBLM-MCCHORD   NOT AVBL                                               
PUYALLUP       MOCLDY    39  39 100 CALM      30.12S                  
BREMERTON      CLEAR     37  36  96 CALM      30.13R                  
JBLM-FT LEWIS  NOT AVBL                                               
TACOMA NARROWS CLOUDY    45  42  89 CALM      30.13R                  
$$
 
WAZ001-503-506-510-514-515-181400-
NORTH INTERIOR
  
CITY           SKY/WX    TMP DP  RH WIND       PRES   REMARKS
BELLINGHAM     CLOUDY    48  45  89 CALM      30.12R                  
FRIDAY HARBOR  MOCLDY    46  43  89 W3        30.14R                  
EASTSOUND      MOCLDY    50  48  93 CALM      30.11S                  
PORT ANGELES   CLEAR     43  40  89 SW7       30.13S                  
EDIZ HOOK      FAIR      46  43  89 SW3       30.13S                  
PORT TOWNSEND  FAIR      41  41 100 CALM      30.12S                  
NAS WHIDBEY    MOCLDY    45  42  89 CALM      30.16S                  
ARLINGTON      FOG       39  39 100 NW3       30.13S VSB 1/2          
BURLINGTON     CLOUDY    43  43 100 CALM      30.13R                  
$$
 
WAZ020-022-039-040-504-511-512-181400-
SOUTHWEST INTERIOR
  
CITY           SKY/WX    TMP DP  RH WIND       PRES   REMARKS
SHELTON        CLEAR     37  35  92 CALM      30.11R                  
OLYMPIA        PTCLDY    38  37  97 CALM      30.13R                  
CHEHALIS       FOG       41  41 100 CALM      30.13R VSB<1/4          
KELSO          CLEAR     43  42  97 NW3       30.12R                  
VANCOUVER      CLEAR     47  45  93 CALM      30.09R                  
SCAPPOOSE, OR  CLEAR     47  43  86 N3        30.09R                  
PORTLAND, OR   PTCLDY    52  46  80 CALM      30.09R                  
$$
 
WAZ021-516-517-181400-
WASHINGTON COAST
  
CITY           SKY/WX    TMP DP  RH WIND       PRES   REMARKS
FORKS          MOCLDY    36  34  92 CALM      30.13R                  
HOQUIAM        CLEAR     42  41  96 NE8       30.13R FOG              
ASTORIA, OR    CLEAR     42  41  96 SE3       30.11R                  
$$
 
WAZ019-023-024-040-567>569-181400-
CASCADE MOUNTAINS AND COLUMBIA GORGE
  
CITY           SKY/WX    TMP DP  RH WIND       PRES   REMARKS
STAMPEDE PASS  FOG       41  41 100 VRB3      30.08R VSB 1/4          
TROUTDALE, OR  MOCLDY    46  43  89 CALM      30.09R                  
HOOD RIVER, OR SUNNY     41  39  93 CALM      30.07R                  
THE DALLES, OR CLEAR     51  46  83 SW3       30.04R                  
$$

WAZ026-027-041>044-520-521-181400-
EAST SLOPES
  
CITY           SKY/WX    TMP DP  RH WIND       PRES   REMARKS
OMAK           CLEAR     46  36  68 N10       30.07R                  
WENATCHEE      CLEAR     45  39  79 W8        30.05R                  
ELLENSBURG     CLEAR     39  35  86 E6        30.05R                  
YAKIMA         CLEAR     39  35  86 W8        30.05R                  
SUNNYSIDE ARPT SUNNY     39  38  95 CALM      30.04S                  
YAKIMA TC      NOT AVBL                                               
$$

WAZ028-034-035-181400-
COLUMBIA BASIN
  
CITY           SKY/WX    TMP DP  RH WIND       PRES   REMARKS
EPHRATA        CLEAR     47  32  56 N3        30.03R                  
MOSES LAKE     CLEAR     38  29  70 N6        30.04R                  
PASCO          MOCLDY    41  39  93 N5        30.04R                  
RICHLAND ARPT  PTSUNNY   44  38  79 CALM      30.04R                  
HERMISTON, OR  MOCLDY    43  35  73 S5        30.03R                  
$$

WAZ036>038-181400-
NORTHEAST WASHINGTON
  
CITY           SKY/WX    TMP DP  RH WIND       PRES   REMARKS
SPOKANE GEIGER PTCLDY    41  31  67 CALM      30.03S                  
SPOKANE FELTS  PTCLDY    41  37  86 CALM      30.05R                  
FAIRCHILD AFB  NOT AVBL                                               
COEURDALENE,ID PTCLDY    41  38  89 NE7       30.04R                  
DEER PARK      CLEAR     33  31  92 N7        30.04R                  
$$

WAZ029>033-181400-
SOUTHEAST WASHINGTON
  
CITY           SKY/WX    TMP DP  RH WIND       PRES   REMARKS
PULLMAN        MOCLDY    38  30  73 CALM      30.03S                  
LEWISTON, ID   CLOUDY    50  38  63 CALM      30.01R                  
WALLA WALLA    MOCLDY    50  36  58 SE5       30.02R                  
PENDLETON, OR  CLOUDY    46  35  65 SE7       30.02R                  
$$